ProjectID,Date,Electric Generation,Electric Utility Import,Facility Electric Load
,YYYY-MM-DD,kW,kW,kW
315,2016-02-01,0.0,,0.0
315,2016-02-02,0.0,,0.0
315,2016-02-03,0.0,,0.0
315,2016-02-04,0.0,,0.0
315,2016-02-05,0.0,,0.0
315,2016-02-06,0.0,,0.0
315,2016-02-07,0.0,,0.0
315,2016-02-08,0.0,,0.0
315,2016-02-09,0.0,,0.0
315,2016-02-10,0.0,,0.0
315,2016-02-11,0.0,,0.0
315,2016-02-12,0.0,,0.0
315,2016-02-13,0.0,,0.0
315,2016-02-14,0.0,,0.0
315,2016-02-15,0.0,,0.0
315,2016-02-16,0.0,,0.0
315,2016-02-17,0.0,,0.0
315,2016-02-18,0.0,,0.0
315,2016-02-19,0.0,,0.0
315,2016-02-20,0.0,,0.0
315,2016-02-21,0.0,,0.0
315,2016-02-22,0.0,,0.0
315,2016-02-23,0.0,,0.0
315,2016-02-24,0.0,,0.0
315,2016-02-25,0.0,,0.0
315,2016-02-26,3.3066250000000004,,3.3066250000000004
315,2016-02-27,3.4795416666666665,,3.4795416666666665
315,2016-02-28,7.340458333333333,,7.340458333333333
315,2016-02-29,3.5635416666666675,,3.5635416666666675
315,2016-03-01,3.003291666666667,,3.003291666666667
315,2016-03-02,1.1958333333333335,,1.1958333333333335
315,2016-03-03,4.278791666666666,,4.278791666666666
315,2016-03-04,3.7476249999999998,,3.7476249999999998
315,2016-03-05,3.110374999999999,,3.110374999999999
315,2016-03-06,6.631291666666667,,6.631291666666667
315,2016-03-07,2.0904583333333333,,2.0904583333333333
315,2016-03-08,3.4537916666666675,,3.4537916666666675
315,2016-03-09,15.105083333333331,,15.105083333333331
315,2016-03-10,9.790041666666667,,9.790041666666667
315,2016-03-11,21.10920833333333,,21.10920833333333
315,2016-03-12,79.30133333333332,,79.30133333333332
315,2016-03-13,55.16470833333332,,55.16470833333332
315,2016-03-14,12.163458333333333,,12.163458333333333
315,2016-03-15,21.70995833333333,,21.70995833333333
315,2016-03-16,31.767249999999994,,31.767249999999994
315,2016-03-17,60.185,,60.185
315,2016-03-18,35.310874999999996,,35.310874999999996
315,2016-03-19,95.93587500000001,,95.93587500000001
315,2016-03-20,80.95508333333333,,80.95508333333333
315,2016-03-21,63.203416666666676,,63.203416666666676
315,2016-03-22,70.08212499999999,,70.08212499999999
315,2016-03-23,12.333833333333331,,12.333833333333331
315,2016-03-24,40.11808333333333,,40.11808333333333
315,2016-03-25,14.017083333333337,,14.017083333333337
315,2016-03-26,96.07991666666668,,96.07991666666668
315,2016-03-27,91.94908333333335,,91.94908333333335
315,2016-03-28,16.259583333333335,,16.259583333333335
315,2016-03-29,88.97191666666667,,88.97191666666667
315,2016-03-30,90.15004166666667,,90.15004166666667
315,2016-03-31,17.02358333333333,,17.02358333333333
315,2016-04-01,41.288875000000004,,41.288875000000004
315,2016-04-02,57.80337499999999,,57.80337499999999
315,2016-04-03,8.641583333333335,,8.641583333333335
315,2016-04-04,0.30724999999999997,,0.30724999999999997
315,2016-04-05,4.412624999999999,,4.412624999999999
315,2016-04-06,9.359166666666669,,9.359166666666669
315,2016-04-07,17.919791666666665,,17.919791666666665
315,2016-04-08,36.358875000000005,,36.358875000000005
315,2016-04-09,101.7839583333333,,101.7839583333333
315,2016-04-10,71.71,,71.71
315,2016-04-11,6.820083333333333,,6.820083333333333
315,2016-04-12,57.852125,,57.852125
315,2016-04-13,93.51966666666665,,93.51966666666665
315,2016-04-14,108.33641666666665,,108.33641666666665
315,2016-04-15,108.26466666666668,,108.26466666666668
315,2016-04-16,105.89554166666669,,105.89554166666669
315,2016-04-17,107.2395,,107.2395
315,2016-04-18,105.32879166666667,,105.32879166666667
315,2016-04-19,101.29670833333334,,101.29670833333334
315,2016-04-20,109.77033333333334,,109.77033333333334
315,2016-04-21,89.85025000000002,,89.85025000000002
315,2016-04-22,37.959875000000004,,37.959875000000004
315,2016-04-23,96.87408333333336,,96.87408333333336
315,2016-04-24,96.77491666666668,,96.77491666666668
315,2016-04-25,29.319041666666667,,29.319041666666667
315,2016-04-26,22.225125000000002,,22.225125000000002
315,2016-04-27,109.16337499999999,,109.16337499999999
315,2016-04-28,91.93583333333333,,91.93583333333333
315,2016-04-29,51.23604166666666,,51.23604166666666
315,2016-04-30,105.84304166666668,,105.84304166666668
315,2016-05-01,17.3655,,17.3655
315,2016-05-02,30.580708333333337,,30.580708333333337
315,2016-05-03,66.38416666666667,,66.38416666666667
315,2016-05-04,65.27920833333333,,65.27920833333333
315,2016-05-05,56.54883333333334,,56.54883333333334
315,2016-05-06,56.78058333333333,,56.78058333333333
315,2016-05-07,87.19070833333332,,87.19070833333332
315,2016-05-08,86.93191666666668,,86.93191666666668
315,2016-05-09,102.22158333333336,,102.22158333333336
315,2016-05-10,113.33300000000001,,113.33300000000001
315,2016-05-11,117.64750000000002,,117.64750000000002
315,2016-05-12,108.734875,,108.734875
315,2016-05-13,46.59633333333332,,46.59633333333332
315,2016-05-14,49.51124999999999,,49.51124999999999
315,2016-05-15,39.73208333333333,,39.73208333333333
315,2016-05-16,98.64850000000003,,98.64850000000003
315,2016-05-17,68.50879166666667,,68.50879166666667
315,2016-05-18,105.70441666666665,,105.70441666666665
315,2016-05-19,108.78604166666669,,108.78604166666669
315,2016-05-20,114.02795833333334,,114.02795833333334
315,2016-05-21,37.422583333333336,,37.422583333333336
315,2016-05-22,70.34741666666666,,70.34741666666666
315,2016-05-23,119.01783333333334,,119.01783333333334
315,2016-05-24,115.32670833333334,,115.32670833333334
315,2016-05-25,83.783125,,83.783125
315,2016-05-26,73.32425,,73.32425
315,2016-05-27,80.15504166666666,,80.15504166666666
315,2016-05-28,106.25970833333332,,106.25970833333332
315,2016-05-29,65.02608333333335,,65.02608333333335
315,2016-05-30,102.24683333333336,,102.24683333333336
315,2016-05-31,119.39133333333332,,119.39133333333332
315,2016-06-01,113.15366666666667,,113.15366666666667
315,2016-06-02,43.44341666666667,,43.44341666666667
315,2016-06-03,117.861375,,117.861375
315,2016-06-04,103.20829166666665,,103.20829166666665
315,2016-06-05,23.098333333333326,,23.098333333333326
315,2016-06-06,92.379,,92.379
315,2016-06-07,70.97466666666668,,70.97466666666668
315,2016-06-08,55.04420833333332,,55.04420833333332
315,2016-06-09,117.96875,,117.96875
315,2016-06-10,115.37954166666667,,115.37954166666667
315,2016-06-11,59.984416666666675,,59.984416666666675
315,2016-06-12,51.03125,,51.03125
315,2016-06-13,43.64595833333334,,43.64595833333334
315,2016-06-14,116.477875,,116.477875
315,2016-06-15,118.53583333333334,,118.53583333333334
315,2016-06-16,112.80470833333334,,112.80470833333334
315,2016-06-17,119.787125,,119.787125
315,2016-06-18,116.43620833333334,,116.43620833333334
315,2016-06-19,113.52612500000002,,113.52612500000002
315,2016-06-20,95.64920833333333,,95.64920833333333
315,2016-06-21,117.07283333333334,,117.07283333333334
315,2016-06-22,105.6465,,105.6465
315,2016-06-23,114.54045833333335,,114.54045833333335
315,2016-06-24,114.95712500000002,,114.95712500000002
315,2016-06-25,116.11595833333335,,116.11595833333335
315,2016-06-26,110.47470833333335,,110.47470833333335
315,2016-06-27,65.42062500000002,,65.42062500000002
315,2016-06-28,103.48116666666665,,103.48116666666665
315,2016-06-29,91.98241666666667,,91.98241666666667
315,2016-06-30,117.238375,,117.238375
315,2016-07-01,64.86854166666667,,64.86854166666667
315,2016-07-02,106.33920833333333,,106.33920833333333
315,2016-07-03,113.505875,,113.505875
315,2016-07-04,115.95504166666667,,115.95504166666667
315,2016-07-05,113.056,,113.056
315,2016-07-06,108.98245833333334,,108.98245833333334
315,2016-07-07,81.04950000000001,,81.04950000000001
315,2016-07-08,62.97212500000001,,62.97212500000001
315,2016-07-09,70.53841666666666,,70.53841666666666
315,2016-07-10,49.339291666666675,,49.339291666666675
315,2016-07-11,105.02024999999999,,105.02024999999999
315,2016-07-12,104.91025,,104.91025
315,2016-07-13,82.57816666666668,,82.57816666666668
315,2016-07-14,77.461,,77.461
315,2016-07-15,95.849625,,95.849625
315,2016-07-16,90.10812500000002,,90.10812500000002
315,2016-07-17,83.49154166666668,,83.49154166666668
315,2016-07-18,63.50916666666666,,63.50916666666666
315,2016-07-19,111.25333333333333,,111.25333333333333
315,2016-07-20,104.66741666666668,,104.66741666666668
315,2016-07-21,107.71283333333332,,107.71283333333332
315,2016-07-22,86.67320833333333,,86.67320833333333
315,2016-07-23,114.16333333333334,,114.16333333333334
315,2016-07-24,91.09245833333331,,91.09245833333331
315,2016-07-25,35.545583333333326,,35.545583333333326
315,2016-07-26,95.49345833333332,,95.49345833333332
315,2016-07-27,101.67054166666667,,101.67054166666667
315,2016-07-28,84.95583333333333,,84.95583333333333
315,2016-07-29,107.68495833333333,,107.68495833333333
315,2016-07-30,71.79683333333334,,71.79683333333334
315,2016-07-31,48.52079166666667,,48.52079166666667
315,2016-08-01,52.49220833333333,,52.49220833333333
315,2016-08-02,99.06779166666666,,99.06779166666666
315,2016-08-03,95.0795,,95.0795
315,2016-08-04,99.166625,,99.166625
315,2016-08-05,90.13804166666667,,90.13804166666667
315,2016-08-06,97.31254166666668,,97.31254166666668
315,2016-08-07,98.11325,,98.11325
315,2016-08-08,110.58716666666665,,110.58716666666665
315,2016-08-09,104.27087499999999,,104.27087499999999
315,2016-08-10,65.09895833333333,,65.09895833333333
315,2016-08-11,95.06129166666669,,95.06129166666669
315,2016-08-12,66.73704166666666,,66.73704166666666
315,2016-08-13,57.720125,,57.720125
315,2016-08-14,65.91008333333332,,65.91008333333332
315,2016-08-15,53.477833333333336,,53.477833333333336
315,2016-08-16,44.83720833333333,,44.83720833333333
315,2016-08-17,83.94399999999999,,83.94399999999999
315,2016-08-18,75.54820833333333,,75.54820833333333
315,2016-08-19,99.09499999999998,,99.09499999999998
315,2016-08-20,89.04033333333332,,89.04033333333332
315,2016-08-21,19.552125,,19.552125
315,2016-08-22,100.41795833333333,,100.41795833333333
315,2016-08-23,92.54429166666667,,92.54429166666667
315,2016-08-24,100.09504166666666,,100.09504166666666
315,2016-08-25,45.35145833333332,,45.35145833333332
315,2016-08-26,98.441375,,98.441375
315,2016-08-27,95.77866666666667,,95.77866666666667
315,2016-08-28,80.23308333333334,,80.23308333333334
315,2016-08-29,98.89320833333333,,98.89320833333333
315,2016-08-30,93.56254166666668,,93.56254166666668
315,2016-08-31,37.07816666666666,,37.07816666666666
315,2016-09-01,91.96354166666667,,91.96354166666667
315,2016-09-02,93.428375,,93.428375
315,2016-09-03,97.1315,,97.1315
315,2016-09-04,90.55604166666667,,90.55604166666667
315,2016-09-05,93.53391666666668,,93.53391666666668
315,2016-09-06,93.621,,93.621
315,2016-09-07,88.73570833333333,,88.73570833333333
315,2016-09-08,57.28387499999999,,57.28387499999999
315,2016-09-09,80.51424999999999,,80.51424999999999
315,2016-09-10,62.522124999999996,,62.522124999999996
315,2016-09-11,90.76429166666667,,90.76429166666667
315,2016-09-12,96.501375,,96.501375
315,2016-09-13,95.13154166666668,,95.13154166666668
315,2016-09-14,45.102791666666654,,45.102791666666654
315,2016-09-15,97.05858333333333,,97.05858333333333
315,2016-09-16,91.61062499999998,,91.61062499999998
315,2016-09-17,49.10675,,49.10675
315,2016-09-18,62.13670833333333,,62.13670833333333
315,2016-09-19,71.01304166666667,,71.01304166666667
315,2016-09-20,90.75779166666668,,90.75779166666668
315,2016-09-21,85.92958333333331,,85.92958333333331
315,2016-09-22,89.97391666666665,,89.97391666666665
315,2016-09-23,20.6185,,20.6185
315,2016-09-24,90.37758333333333,,90.37758333333333
315,2016-09-25,91.83725,,91.83725
315,2016-09-26,56.53516666666666,,56.53516666666666
315,2016-09-27,84.94791666666667,,84.94791666666667
315,2016-09-28,86.104125,,86.104125
315,2016-09-29,35.332041666666655,,35.332041666666655
315,2016-09-30,24.847583333333322,,24.847583333333322
315,2016-10-01,40.346375,,40.346375
315,2016-10-02,52.32154166666666,,52.32154166666666
315,2016-10-03,38.137999999999984,,38.137999999999984
315,2016-10-04,37.12233333333333,,37.12233333333333
315,2016-10-05,74.37887500000001,,74.37887500000001
315,2016-10-06,79.44262499999999,,79.44262499999999
315,2016-10-07,79.70441666666666,,79.70441666666666
315,2016-10-08,7.712208333333333,,7.712208333333333
315,2016-10-09,57.62370833333333,,57.62370833333333
315,2016-10-10,83.39841666666666,,83.39841666666666
315,2016-10-11,74.45183333333334,,74.45183333333334
315,2016-10-12,75.06112499999999,,75.06112499999999
315,2016-10-13,24.01170833333332,,24.01170833333332
315,2016-10-14,78.21875,,78.21875
315,2016-10-15,75.56241666666666,,75.56241666666666
315,2016-10-16,48.86062499999999,,48.86062499999999
315,2016-10-17,15.209583333333335,,15.209583333333335
315,2016-10-18,61.567624999999985,,61.567624999999985
315,2016-10-19,47.63412499999999,,47.63412499999999
315,2016-10-20,5.180916666666668,,5.180916666666668
315,2016-10-21,5.428375000000002,,5.428375000000002
315,2016-10-22,8.140625,,8.140625
315,2016-10-23,48.13154166666666,,48.13154166666666
315,2016-10-24,29.615791666666656,,29.615791666666656
315,2016-10-25,26.414124999999995,,26.414124999999995
315,2016-10-26,33.69395833333332,,33.69395833333332
315,2016-10-27,2.791666666666668,,2.791666666666668
315,2016-10-28,14.759083333333335,,14.759083333333335
315,2016-10-29,5.812458333333335,,5.812458333333335
315,2016-10-30,10.121166666666666,,10.121166666666666
315,2016-10-31,27.105374999999984,,27.105374999999984
315,2016-11-01,48.983124999999994,,48.983124999999994
315,2016-11-02,16.33716666666667,,16.33716666666667
315,2016-11-03,21.541624999999993,,21.541624999999993
315,2016-11-04,51.81908333333332,,51.81908333333332
315,2016-11-05,32.27212499999998,,32.27212499999998
315,2016-11-06,48.77995833333333,,48.77995833333333
315,2016-11-07,58.71745833333333,,58.71745833333333
315,2016-11-08,44.26691666666665,,44.26691666666665
315,2016-11-09,14.040333333333335,,14.040333333333335
315,2016-11-10,51.246041666666656,,51.246041666666656
315,2016-11-11,38.75649999999999,,38.75649999999999
315,2016-11-12,30.85795833333333,,30.85795833333333
315,2016-11-13,51.49479166666665,,51.49479166666665
315,2016-11-14,52.88016666666666,,52.88016666666666
315,2016-11-15,36.53116666666666,,36.53116666666666
315,2016-11-16,36.30458333333332,,36.30458333333332
315,2016-11-17,22.88533333333332,,22.88533333333332
315,2016-11-18,48.67441666666665,,48.67441666666665
315,2016-11-19,41.923083333333324,,41.923083333333324
315,2016-11-20,7.722583333333335,,7.722583333333335
315,2016-11-21,1.1118749999999995,,1.1118749999999995
315,2016-11-22,3.520708333333335,,3.520708333333335
315,2016-11-23,7.872416666666667,,7.872416666666667
315,2016-11-24,3.618375000000002,,3.618375000000002
315,2016-11-25,6.6705000000000005,,6.6705000000000005
315,2016-11-26,8.274666666666668,,8.274666666666668
315,2016-11-27,12.542875000000002,,12.542875000000002
315,2016-11-28,39.292916666666656,,39.292916666666656
315,2016-11-29,7.684833333333334,,7.684833333333334
315,2016-11-30,6.467458333333333,,6.467458333333333
315,2016-12-01,8.716083333333335,,8.716083333333335
315,2016-12-02,15.234333333333334,,15.234333333333334
315,2016-12-03,11.913958333333335,,11.913958333333335
315,2016-12-04,34.99345833333333,,34.99345833333333
315,2016-12-05,1.787791666666667,,1.787791666666667
315,2016-12-06,24.98691666666666,,24.98691666666666
315,2016-12-07,31.830708333333323,,31.830708333333323
315,2016-12-08,20.251250000000002,,20.251250000000002
315,2016-12-09,5.428291666666667,,5.428291666666667
315,2016-12-10,0.6613333333333334,,0.6613333333333334
315,2016-12-11,0.17437499999999995,,0.17437499999999995
315,2016-12-12,0.025875000000000013,,0.025875000000000013
315,2016-12-13,0.07670833333333332,,0.07670833333333332
315,2016-12-14,0.37758333333333344,,0.37758333333333344
315,2016-12-15,0.031166666666666672,,0.031166666666666672
315,2016-12-16,0.10283333333333337,,0.10283333333333337
315,2016-12-17,0.02325000000000001,,0.02325000000000001
315,2016-12-18,0.07804166666666666,,0.07804166666666666
315,2016-12-19,0.14050000000000004,,0.14050000000000004
315,2016-12-20,0.08062499999999997,,0.08062499999999997
315,2016-12-21,0.14183333333333334,,0.14183333333333334
315,2016-12-22,0.025875000000000013,,0.025875000000000013
315,2016-12-23,0.08320833333333331,,0.08320833333333331
315,2016-12-24,0.19395833333333326,,0.19395833333333326
315,2016-12-25,14.759041666666668,,14.759041666666668
315,2016-12-26,5.537666666666669,,5.537666666666669
315,2016-12-27,5.8423750000000005,,5.8423750000000005
315,2016-12-28,1.3202083333333332,,1.3202083333333332
315,2016-12-29,0.10145833333333336,,0.10145833333333336
315,2016-12-30,0.05062499999999998,,0.05062499999999998
315,2016-12-31,0.044125,,0.044125
315,2017-01-01,6.4387083333333335,,6.4387083333333335
315,2017-01-02,4.290333333333335,,4.290333333333335
315,2017-01-03,5.4348333333333345,,5.4348333333333345
315,2017-01-04,21.613249999999994,,21.613249999999994
315,2017-01-05,23.16658333333332,,23.16658333333332
315,2017-01-06,21.277333333333335,,21.277333333333335
315,2017-01-07,28.428291666666652,,28.428291666666652
315,2017-01-08,1.8501666666666665,,1.8501666666666665
315,2017-01-09,0.3749583333333335,,0.3749583333333335
315,2017-01-10,0.13925,,0.13925
315,2017-01-11,36.24595833333333,,36.24595833333333
315,2017-01-12,5.472541666666668,,5.472541666666668
315,2017-01-13,15.36325,,15.36325
315,2017-01-14,18.661458333333332,,18.661458333333332
315,2017-01-15,38.30595833333333,,38.30595833333333
315,2017-01-16,47.21999999999999,,47.21999999999999
315,2017-01-17,4.626208333333335,,4.626208333333335
315,2017-01-18,5.708250000000002,,5.708250000000002
315,2017-01-19,12.718708333333334,,12.718708333333334
315,2017-01-20,21.44137499999999,,21.44137499999999
315,2017-01-21,31.64579166666665,,31.64579166666665
315,2017-01-22,25.657499999999988,,25.657499999999988
315,2017-01-23,12.361916666666668,,12.361916666666668
315,2017-01-24,1.4009583333333333,,1.4009583333333333
315,2017-01-25,1.5325416666666667,,1.5325416666666667
315,2017-01-26,18.53775,,18.53775
315,2017-01-27,11.249958333333334,,11.249958333333334
315,2017-01-28,20.411416666666668,,20.411416666666668
315,2017-01-29,22.42699999999999,,22.42699999999999
315,2017-01-30,20.785166666666665,,20.785166666666665
315,2017-01-31,3.6887916666666682,,3.6887916666666682
315,2017-02-01,23.686124999999993,,23.686124999999993
315,2017-02-02,1.189958333333333,,1.189958333333333
315,2017-02-03,3.9244583333333343,,3.9244583333333343
315,2017-02-04,0.6522500000000001,,0.6522500000000001
315,2017-02-05,0.19133333333333327,,0.19133333333333327
315,2017-02-06,0.20437499999999995,,0.20437499999999995
315,2017-02-07,0.06370833333333333,,0.06370833333333333
315,2017-02-08,27.80720833333332,,27.80720833333332
315,2017-02-09,3.6118333333333346,,3.6118333333333346
315,2017-02-10,1.5572499999999998,,1.5572499999999998
315,2017-02-11,0.7043749999999998,,0.7043749999999998
315,2017-02-12,0.3840000000000002,,0.3840000000000002
315,2017-02-13,0.027208333333333338,,0.027208333333333338
315,2017-02-14,0.5141666666666668,,0.5141666666666668
315,2017-02-15,1.3110416666666664,,1.3110416666666664
315,2017-02-16,0.6679166666666667,,0.6679166666666667
315,2017-02-17,1.273333333333333,,1.273333333333333
315,2017-02-18,15.292875000000002,,15.292875000000002
315,2017-02-19,79.88274999999999,,79.88274999999999
315,2017-02-20,88.979125,,88.979125
315,2017-02-21,42.83983333333333,,42.83983333333333
315,2017-02-22,56.244708333333314,,56.244708333333314
315,2017-02-23,41.36070833333333,,41.36070833333333
315,2017-02-24,39.77079166666666,,39.77079166666666
315,2017-02-25,11.524708333333335,,11.524708333333335
315,2017-02-26,6.227875000000001,,6.227875000000001
315,2017-02-27,72.98949999999999,,72.98949999999999
315,2017-02-28,50.97266666666667,,50.97266666666667
315,2017-03-01,29.183541666666653,,29.183541666666653
315,2017-03-02,51.42579166666667,,51.42579166666667
315,2017-03-03,64.92445833333333,,64.92445833333333
315,2017-03-04,63.433624999999985,,63.433624999999985
315,2017-03-05,101.63141666666665,,101.63141666666665
315,2017-03-06,43.04162499999999,,43.04162499999999
315,2017-03-07,11.684875,,11.684875
315,2017-03-08,69.99479166666667,,69.99479166666667
315,2017-03-09,52.85025000000001,,52.85025000000001
315,2017-03-10,58.74216666666667,,58.74216666666667
315,2017-03-11,43.90104166666666,,43.90104166666666
315,2017-03-12,69.23833333333333,,69.23833333333333
315,2017-03-13,9.744791666666666,,9.744791666666666
315,2017-03-14,0.16662500000000002,,0.16662500000000002
315,2017-03-15,0.4882500000000001,,0.4882500000000001
315,2017-03-16,5.242166666666668,,5.242166666666668
315,2017-03-17,29.99991666666666,,29.99991666666666
315,2017-03-18,17.326708333333332,,17.326708333333332
315,2017-03-19,41.076833333333326,,41.076833333333326
315,2017-03-20,37.11458333333333,,37.11458333333333
315,2017-03-21,47.73825,,47.73825
315,2017-03-22,71.546875,,71.546875
315,2017-03-23,107.94666666666667,,107.94666666666667
315,2017-03-24,16.14975,,16.14975
315,2017-03-25,24.274749999999997,,24.274749999999997
315,2017-03-26,39.50649999999999,,39.50649999999999
315,2017-03-27,30.609333333333325,,30.609333333333325
315,2017-03-28,23.179708333333323,,23.179708333333323
315,2017-03-29,100.67183333333332,,100.67183333333332
315,2017-03-30,65.35804166666667,,65.35804166666667
315,2017-03-31,13.315083333333334,,13.315083333333334
315,2017-04-01,28.550708333333322,,28.550708333333322
315,2017-04-02,107.27079166666665,,107.27079166666665
315,2017-04-03,62.61729166666667,,62.61729166666667
315,2017-04-04,31.16666666666666,,31.16666666666666
315,2017-04-05,40.15875,,40.15875
315,2017-04-06,14.132833333333332,,14.132833333333332
315,2017-04-07,28.78779166666666,,28.78779166666666
315,2017-04-08,113.22649999999999,,113.22649999999999
315,2017-04-09,112.28520833333333,,112.28520833333333
315,2017-04-10,104.72008333333333,,104.72008333333333
315,2017-04-11,54.42970833333334,,54.42970833333334
315,2017-04-12,38.6485,,38.6485
315,2017-04-13,109.18250000000002,,109.18250000000002
315,2017-04-14,121.34658333333336,,121.34658333333336
315,2017-04-15,64.58620833333337,,64.58620833333337
315,2017-04-16,83.35954166666669,,83.35954166666669
315,2017-04-17,98.32829166666669,,98.32829166666669
315,2017-04-18,124.52370833333335,,124.52370833333335
315,2017-04-19,21.536749999999998,,21.536749999999998
315,2017-04-20,43.00025,,43.00025
315,2017-04-21,32.679875,,32.679875
315,2017-04-22,57.74504166666668,,57.74504166666668
315,2017-04-23,124.70858333333337,,124.70858333333337
315,2017-04-24,119.89612500000003,,119.89612500000003
315,2017-04-25,49.61479166666667,,49.61479166666667
315,2017-04-26,102.44295833333335,,102.44295833333335
315,2017-04-27,110.82833333333336,,110.82833333333336
315,2017-04-28,66.98733333333337,,66.98733333333337
315,2017-04-29,0.06024999999999997,,0.06024999999999997
315,2017-04-30,0.06541666666666664,,0.06541666666666664
315,2017-05-01,0.04187499999999999,,0.04187499999999999
315,2017-05-02,0.06274999999999999,,0.06274999999999999
315,2017-05-03,0.06274999999999999,,0.06274999999999999
315,2017-05-04,0.05762499999999998,,0.05762499999999998
315,2017-05-05,0.03929166666666666,,0.03929166666666666
315,2017-05-06,0.07583333333333331,,0.07583333333333331
315,2017-05-07,0.03408333333333333,,0.03408333333333333
315,2017-05-08,0.03145833333333333,,0.03145833333333333
315,2017-05-09,0.028833333333333332,,0.028833333333333332
315,2017-05-10,0.06020833333333331,,0.06020833333333331
315,2017-05-11,0.07324999999999998,,0.07324999999999998
315,2017-05-12,0.07837499999999999,,0.07837499999999999
315,2017-05-13,0.05495833333333331,,0.05495833333333331
315,2017-05-14,0.07587499999999998,,0.07587499999999998
315,2017-05-15,0.04191666666666666,,0.04191666666666666
315,2017-05-16,0.07583333333333331,,0.07583333333333331